User: anonymous   Login
Location: Grust
(42.8833°N, 0.0333°W)
Time: 08:32:55
(UTC+00:00)
Language:

Cosmos 2227 Rocket - Orbit

View from above orbital plane
View from above orbital plane
View from above satellite
View from above satellite

Ground track
Ground track

The orbit data is extracted from the following two-line orbital elements,

1 22285U 92093B   21018.62283470  .00000000  00000-0  24411-4 0  9992
2 22285  71.0233 341.1076 0006687 281.8552  78.1821 14.15055893447763
Epoch (UTC): 18 January 2021 14:56:52
Eccentricity: 0.0006687
inclination: 71.0233°
perigee height: 837 km
apogee height: 847 km
right ascension of ascending node: 341.1076°
argument of perigee: 281.8552°
revolutions per day: 14.15055893
mean anomaly at epoch: 78.1821°
orbit number at epoch: 44776

The dashed part of the orbit path shows where the satellite is in the earth's shadow,  

DLR